Weather in Nekrasovka

Russia / Oryol Oblast     52°59′27″N   36°01′25″E
temp.,
°C
wind,
m/s
gust,
m/s
humid.,
%
clouds,
%
prec.,
mm/h
press.,
hPa
HPBL,
m
9 may, sun
sun900:00+3wnw91597100 1.1 1006561
03:00+3nw81597100 6.0 1009978
06:00+3nw81497100 1.6 1011713
09:00+5nw81082100 1.7 10131059
12:00+7nw81074100 0.3 10151414
15:00+8nnw8116219 0.3 10181565
18:00+9nnw696821 0.1 10201346
21:00+4wnw49802 0.1 1022162
10 may, mon
mon1000:00+3nw411815 0.0 1023199
03:00+2nnw411820 0.0 1025200
06:00+3nnw411790 0.0 1026213
09:00+8n59630 0.0 1027590
12:00+11n79505 0.0 10261655
15:00+12nne810461 0.0 10251660
18:00+11nne7116168 0.0 10251223
21:00+7nne51472100 0.0 1026398
11 may, tue
tue1100:00+8nne61465100 0.0 1025493
03:00+8nne61471100 0.0 1024438
06:00+7nne6157795 0.0 1024434
09:00+9nne7158278 0.1 1023518
12:00+16ene91272100 0.0 10221155
15:00+15ene6118199 0.3 1022938
18:00+13e6118222 0.4 1024921
21:00+9ene49924 0.4 1024169
12 may, wed
wed1200:00+8ese4986100 0.0 1025312
03:00+7ene3786100 0.0 1024165
06:00+7ene3789100 0.0 1024206
09:00+12e577177 0.0 1023765
12:00+14e696291 0.0 10211298
15:00+15ese7106581 0.8 10201602
18:00+12ese61181100 0.9 1019767
21:00+10ese513879 1.1 1018423
13 may, thu
thu1300:00+9ese5139380 0.4 1018368
03:00+10se51292100 0.7 1018521
06:00+10se61295100 1.4 1019458
09:00+11ese4109372 1.9 1019460
12:00+16sse687359 0.1 10181204
15:00+18se586781 0.4 10171485
18:00+18se4972100 0.0 1016369
21:00+13ese4887100 0.0 1016139